This is the latest recevied weather packets stored in our database for station/object N0QV. If no packets are shown the sender has not sent any weather packets the latest 10 day(s).
| Time | Temp. | Humidity | Pressure | Rain* | Wind** | Luminosity | Snow |
|---|---|---|---|---|---|---|---|
| 1777557472 | 7.22° C | 56% | 1019.1 hPa | 0 mm | - | 282 W/m² | - |
| 1777557168 | 6.11° C | 58% | 1019.1 hPa | 0 mm | - | 353 W/m² | - |
| 1777556863 | 5.56° C | 59% | 1018.9 hPa | 0 mm | - | 249 W/m² | - |
| 1777556560 | 6.11° C | 59% | 1019.2 hPa | 0 mm | - | 196 W/m² | - |
| 1777556259 | 5.56° C | 59% | 1018.8 hPa | 0 mm | - | 170 W/m² | - |
| 1777555955 | 6.11° C | 58% | 1019 hPa | 0 mm | - | 227 W/m² | - |
| 1777555651 | 6.11° C | 58% | 1019.1 hPa | 0 mm | - | 314 W/m² | - |
| 1777555348 | 6.11° C | 58% | 1018.8 hPa | 0 mm | - | 304 W/m² | - |
| 1777555045 | 5.56° C | 59% | 1018.9 hPa | 0 mm | - | 220 W/m² | - |
| 1777554742 | 5.56° C | 59% | 1019 hPa | 0 mm | - | 205 W/m² | - |
| 1777554439 | 5.56° C | 59% | 1018.9 hPa | 0 mm | - | 183 W/m² | - |
| 1777554135 | 5.56° C | 59% | 1019.1 hPa | 0 mm | - | 170 W/m² | - |
| 1777553833 | 5.56° C | 59% | 1019.1 hPa | 0 mm | - | 156 W/m² | - |
| 1777553529 | 5.56° C | 60% | 1019 hPa | 0 mm | - | 147 W/m² | - |
| 1777553224 | 5.56° C | 59% | 1019 hPa | 0 mm | - | 148 W/m² | - |
| 1777552921 | 5.56° C | 60% | 1018.8 hPa | 0 mm | - | 127 W/m² | - |
| 1777552615 | 5.56° C | 61% | 1018.7 hPa | 0 mm | - | 109 W/m² | - |
| 1777552312 | 5° C | 62% | 1018.9 hPa | 0 mm | - | 106 W/m² | - |
| 1777552009 | 5.56° C | 63% | 1018.8 hPa | 0 mm | - | 78 W/m² | - |
| 1777551706 | 5.56° C | 62% | 1018.7 hPa | 0 mm | - | 66 W/m² | - |
| 1777551404 | 5° C | 62% | 1018.9 hPa | 0 mm | - | 60 W/m² | - |
| 1777551100 | 5° C | 61% | 1018.7 hPa | 0 mm | - | 52 W/m² | - |
| 1777550797 | 5° C | 62% | 1018.7 hPa | 0 mm | - | 47 W/m² | - |
| 1777550493 | 4.44° C | 62% | 1018.6 hPa | 0 mm | - | 47 W/m² | - |
| 1777550190 | 4.44° C | 63% | 1018.7 hPa | 0 mm | - | 35 W/m² | - |
* Rain latest hour (hover to see other rain measurements)
** Current wind speed in m/s (hover to see current wind gust speed)